Погода в Новоднестровске

Украина / Черновицкая область     48°34′41″N   27°26′30″E
темп.,
°C
ветер,
м/с
пор.,
м/с
влажн.,
%
обл.,
%
осадки,
мм/ч
давл.,
гПа
погр.,
м
23 апреля, пт
пт2300:00+10зсз388530 1.8 1016282
03:00+6ссз51089100 1.8 1017449
06:00+6ссз5786100 0.1 1018690
09:00+6ссз5573100 0.3 1019904
12:00+9сз3455100 0.3 10201443
15:00+11сз354287 0.4 10192016
18:00+11сз464380 0.0 10181898
21:00+7сз3859100 0.0 1020275
24 апреля, сб
сб2400:00+5з367166 0.0 1021144
03:00+3з38805 0.0 1022209
06:00+2зсз411832 0.0 1022343
09:00+5сз79676 0.0 10231084
12:00+8сз6940100 0.0 10242455
15:00+10зсз794099 0.0 10232470
18:00+10сз69356 0.0 10222300
21:00+7з114994 0.0 102310
25 апреля, вс
вс2500:00+5зюз225554 0.0 102315
03:00+5юз366498 0.0 1022113
06:00+4ююз22806 0.0 102117
09:00+8ююз4770100 0.0 1020593
12:00+11зюз455998 0.4 10191464
15:00+10сз5561100 0.8 10181203
18:00+9с456292 0.0 10181095
21:00+7с355899 0.1 1019258
26 апреля, пн
пн2600:00+5ссв2256100 0.0 101952
03:00+4зюз1154100 0.0 101913
06:00+4сз246181 0.0 1018133
09:00+5з556876 0.1 1019803
12:00+9зсз564194 0.6 10182258
15:00+10зсз6733100 0.6 10172687
18:00+10сз563679 0.0 10162181
21:00+6ссз365692 0.0 1017202
27 апреля, вт
вт2700:00+4с2264100 0.0 101726
03:00+4сз116590 0.0 101711
06:00+3сз246590 0.0 1017126
09:00+6сз45530 0.0 1017864
12:00+9сз45375 0.0 10181875
15:00+11зсз34355 0.0 10161859
18:00+11з23365 0.0 10161758
21:00+8ю1146100 0.0 101610